TimeWET,TemperatureF,Dew PointF,Humidity,Sea Level PressureIn,VisibilityMPH,Wind Direction,Wind SpeedMPH,Gust SpeedMPH,PrecipitationIn,Events,Conditions,WindDirDegrees,DateUTC
12:00 AM,57.2,42.8,59,30.01,6.2,West,5.8,-,N/A,,Mostly Cloudy,270,2013-11-17 00:00:00
12:30 AM,57.2,41.0,55,30.01,6.2,WNW,8.1,-,N/A,,Mostly Cloudy,300,2013-11-17 00:30:00
1:00 AM,55.4,41.0,58,30.01,6.2,WNW,4.6,-,N/A,,Mostly Cloudy,300,2013-11-17 01:00:00
1:30 AM,55.4,41.0,58,30.01,6.2,West,4.6,-,N/A,,Mostly Cloudy,270,2013-11-17 01:30:00
2:00 AM,55.4,41.0,58,30.01,6.2,West,4.6,-,N/A,,Mostly Cloudy,260,2013-11-17 02:00:00
2:30 AM,55.4,41.0,58,30.01,6.2,West,4.6,-,N/A,,Mostly Cloudy,270,2013-11-17 02:30:00
3:00 AM,54,40,49,30.01,6,West,2.3,,,,Mostly Cloudy,280,2013-11-17 03:00:00
3:00 AM,53.6,41.0,62,30.01,6.2,West,2.3,-,N/A,,Mostly Cloudy,280,2013-11-17 03:00:00
3:30 AM,53.6,41.0,62,30.01,6.2,West,3.5,-,N/A,,Mostly Cloudy,280,2013-11-17 03:30:00
4:00 AM,53.6,41.0,62,30.01,6.2,West,4.6,-,N/A,,Mostly Cloudy,270,2013-11-17 04:00:00
4:30 AM,53.6,39.2,58,30.01,6.2,WNW,4.6,-,N/A,,Mostly Cloudy,300,2013-11-17 04:30:00
5:00 AM,53.6,42.8,67,30.01,6.2,NW,6.9,-,N/A,,Mostly Cloudy,310,2013-11-17 05:00:00
5:30 AM,53.6,42.8,67,30.01,6.2,North,6.9,-,N/A,,Mostly Cloudy,350,2013-11-17 05:30:00
6:00 AM,53,44,63,30.02,5,NW,8.1,,,,Partly Cloudy,310,2013-11-17 06:00:00
6:00 AM,51.8,44.6,76,30.01,5.0,NW,8.1,-,N/A,,Mostly Cloudy,310,2013-11-17 06:00:00
6:30 AM,51.8,46.4,82,30.01,5.0,WNW,6.9,-,N/A,Rain,Rain Showers,300,2013-11-17 06:30:00
7:00 AM,50.0,46.4,87,30.01,5.0,WNW,4.6,-,N/A,Rain,Rain Showers,290,2013-11-17 07:00:00
7:30 AM,50.0,48.2,94,30.04,6.2,SW,4.6,-,N/A,,Mostly Cloudy,230,2013-11-17 07:30:00
8:00 AM,51.8,46.4,82,30.04,6.2,SSW,4.6,-,N/A,,Mostly Cloudy,210,2013-11-17 08:00:00
8:30 AM,51.8,46.4,82,30.04,6.2,SW,5.8,-,N/A,,Mostly Cloudy,220,2013-11-17 08:30:00
9:00 AM,52,47,76,30.07,6,SW,6.9,,,,Clear,230,2013-11-17 09:00:00
9:00 AM,51.8,46.4,82,30.06,6.2,SW,6.9,-,N/A,,Mostly Cloudy,230,2013-11-17 09:00:00
9:30 AM,53.6,46.4,77,30.06,6.2,WSW,9.2,-,N/A,,Mostly Cloudy,250,2013-11-17 09:30:00
10:00 AM,55.4,48.2,77,30.06,6.2,West,6.9,-,N/A,,Scattered Clouds,270,2013-11-17 10:00:00
10:30 AM,55.4,46.4,72,30.09,6.2,West,6.9,-,N/A,,Scattered Clouds,270,2013-11-17 10:30:00
11:00 AM,55.4,46.4,72,30.06,6.2,West,6.9,-,N/A,,Scattered Clouds,260,2013-11-17 11:00:00
11:30 AM,57.2,46.4,67,30.06,6.2,WNW,9.2,-,N/A,,Scattered Clouds,290,2013-11-17 11:30:00
12:00 PM,58,43,47,30.06,6,NW,6.9,,,,Clear,310,2013-11-17 12:00:00
12:00 PM,57.2,44.6,63,30.06,6.2,NW,6.9,-,N/A,,Scattered Clouds,310,2013-11-17 12:00:00
12:30 PM,59.0,42.8,55,30.06,6.2,Variable,5.8,17.3,N/A,,Scattered Clouds,0,2013-11-17 12:30:00
1:00 PM,60.8,41.0,48,30.04,6.2,WNW,9.2,-,N/A,,Scattered Clouds,290,2013-11-17 13:00:00
1:30 PM,60.8,39.2,45,30.04,6.2,WNW,8.1,-,N/A,,Scattered Clouds,290,2013-11-17 13:30:00
2:00 PM,60.8,35.6,39,30.04,6.2,West,9.2,-,N/A,,Scattered Clouds,270,2013-11-17 14:00:00
2:30 PM,60.8,37.4,42,30.04,6.2,West,9.2,-,N/A,,Scattered Clouds,280,2013-11-17 14:30:00
3:00 PM,61,36,28,30.02,6,West,11.5,,,,Partly Cloudy,270,2013-11-17 15:00:00
3:00 PM,60.8,37.4,42,30.04,6.2,West,12.7,-,N/A,,Scattered Clouds,270,2013-11-17 15:00:00
3:30 PM,60.8,35.6,39,30.04,6.2,West,11.5,-,N/A,,Scattered Clouds,280,2013-11-17 15:30:00
4:00 PM,62.6,37.4,39,30.04,6.2,West,10.4,-,N/A,,Mostly Cloudy,280,2013-11-17 16:00:00
4:30 PM,60.8,35.6,39,30.06,6.2,West,9.2,-,N/A,,Mostly Cloudy,280,2013-11-17 16:30:00
5:00 PM,59.0,35.6,42,30.06,6.2,West,6.9,-,N/A,,Mostly Cloudy,270,2013-11-17 17:00:00
5:30 PM,59.0,37.4,45,30.06,6.2,WSW,9.2,-,N/A,,Mostly Cloudy,250,2013-11-17 17:30:00
6:00 PM,58,38,35,30.05,6,West,5.8,,,,Mostly Cloudy,260,2013-11-17 18:00:00
6:00 PM,59.0,37.4,45,30.06,6.2,WSW,5.8,-,N/A,,Mostly Cloudy,250,2013-11-17 18:00:00
6:30 PM,57.2,39.2,51,30.06,6.2,WNW,4.6,-,N/A,,Mostly Cloudy,300,2013-11-17 18:30:00
7:00 PM,57.2,41.0,55,30.06,6.2,NNE,6.9,-,N/A,,Mostly Cloudy,20,2013-11-17 19:00:00
7:30 PM,57.2,39.2,51,30.09,6.2,North,4.6,-,N/A,,Mostly Cloudy,10,2013-11-17 19:30:00
8:00 PM,55.4,41.0,58,30.09,6.2,NNE,3.5,-,N/A,,Scattered Clouds,30,2013-11-17 20:00:00
8:30 PM,53.6,41.0,62,30.09,6.2,NNE,5.8,-,N/A,,Scattered Clouds,30,2013-11-17 20:30:00
9:00 PM,53,40,52,30.10,6,NE,6.9,,,,Partly Cloudy,50,2013-11-17 21:00:00
9:00 PM,53.6,41.0,62,30.09,6.2,NE,6.9,-,N/A,,Scattered Clouds,50,2013-11-17 21:00:00
9:30 PM,51.8,41.0,67,30.09,6.2,East,8.1,-,N/A,,Partly Cloudy,80,2013-11-17 21:30:00
10:00 PM,51.8,42.8,71,30.09,6.2,East,8.1,-,N/A,,Partly Cloudy,100,2013-11-17 22:00:00
10:30 PM,50.0,42.8,76,30.09,6.2,East,5.8,-,N/A,,Scattered Clouds,90,2013-11-17 22:30:00
11:00 PM,48.2,42.8,82,30.09,6.2,East,4.6,-,N/A,,Scattered Clouds,100,2013-11-17 23:00:00
11:30 PM,48.2,42.8,82,30.09,6.2,ESE,3.5,-,N/A,,Scattered Clouds,110,2013-11-17 23:30:00